Location: Unspecified
(43.4354°N, 0.0000°E)
Time: 19:24:27
(UTC+00:00)

Vanguard 2 Rocket - Pass Details

Date: 19 June 2019
Orbit: 554 x 3326 km, 32.9° (Epoch: 15 July)

Event Time Altitude Azimuth Distance (km) Brightness Sun altitude
Rises 02:36:15 0° 271° (W) 5,790 10.7 -14.3°
Reaches altitude 10° 02:39:44 10° 266° (W) 5,097 10.3 -13.9°
Maximum altitude 02:54:56 50° 198° (SSW) 3,726 9.6 -12.2°
Drops below altitude 10° 03:13:52 10° 131° (SE) 6,196 11.2 -9.9°
Sets 03:18:40 0° 127° (SE) 7,069 11.5 -9.3°
